DateTime,F1_A11,F1_S11,BsB_S11,BsG_S11,BsR_S11,BbsB_S11,BbsG_S11,BbsR_S11,BaB_A11,BaG_A11,BaR_A11,T_S11,U_S11,P_S11,T1_A11
2016-11-20T00:00:00Z,0000388,21000608,,,,,,,,,,27.3,00.0,0640.0,34.6
2016-11-20T00:01:00Z,0000388,21000608,,,,,,,,,,27.3,00.0,0640.0,34.6
2016-11-20T00:02:00Z,0000388,21000608,,,,,,,,,,27.3,00.0,0640.0,34.6
2016-11-20T00:03:00Z,0000388,61000608,,,,,,,,,,27.3,00.0,0640.0,34.6
2016-11-20T00:04:00Z,0000388,41000608,0000.50,0000.38,-000.19,0000.19,0000.04,-000.31,-000.07,-000.08,-000.12,27.3,00.0,0640.9,34.6
2016-11-20T00:05:00Z,0000388,01000608,-000.10,0000.23,-000.03,-000.74,0000.09,0000.04,0000.17,0000.19,-000.09,27.3,00.0,0641.0,34.6
2016-11-20T00:06:00Z,0000388,01000608,0000.41,0000.25,-000.35,0000.26,0000.30,-000.35,-000.11,0000.04,0000.18,27.3,00.0,0641.0,34.6
2016-11-20T00:07:00Z,0000388,01000608,-000.39,-000.39,-000.33,0000.17,-000.05,-000.55,0000.03,-000.02,-000.03,27.3,00.0,0641.0,34.6
2016-11-20T00:08:00Z,0000388,01000608,-000.03,-000.28,0000.06,-000.29,0000.55,-000.07,-000.08,0000.04,-000.06,27.3,00.0,0641.0,34.6
2016-11-20T00:09:00Z,0000388,01000608,0000.17,0000.58,-000.39,-000.40,0000.40,-000.20,0000.00,-000.01,0000.01,27.3,00.0,0641.0,34.6
2016-11-20T00:10:00Z,0000388,01000608,0000.29,-000.16,-000.10,0000.10,0000.34,-000.45,0000.01,0000.02,-000.01,27.3,00.0,0640.9,34.6
2016-11-20T00:11:00Z,0000388,01000608,0000.37,0000.02,0000.25,0000.48,0000.39,0000.38,-000.01,-000.01,0000.08,27.3,00.0,0640.9,34.6
2016-11-20T00:12:00Z,0000388,01000608,0000.21,0000.09,-000.15,0000.29,-000.24,-000.45,0000.07,0000.05,-000.08,27.3,00.0,0640.9,34.6
2016-11-20T00:13:00Z,0000388,01000608,0000.41,0000.15,-000.25,-000.10,-000.03,-000.22,0000.01,-000.07,0000.30,27.3,00.0,0640.9,34.6
2016-11-20T00:14:00Z,0000388,01000608,0001.12,-000.32,0000.09,0000.12,0000.26,0000.58,-000.13,-000.04,-000.14,27.3,00.0,0641.0,34.6
2016-11-20T00:15:00Z,0000388,01000608,-000.77,0000.38,-000.46,-000.08,-000.12,-000.30,0000.22,0000.18,0000.29,27.3,00.0,0641.0,34.6
2016-11-20T00:16:00Z,0000388,01000608,0000.49,-000.31,0000.26,0000.26,0000.15,-000.11,0000.06,-000.22,-000.24,27.3,00.0,0641.0,34.6
2016-11-20T00:17:00Z,0000388,01000608,0000.47,-000.05,0000.26,0000.88,-000.02,-000.05,-000.04,0000.18,0000.14,27.3,00.0,0641.0,34.6
2016-11-20T00:18:00Z,0000388,01000608,0000.55,0000.19,0000.09,0000.24,0000.00,0000.21,0000.02,-000.04,-000.08,27.3,00.0,0641.0,34.6
2016-11-20T00:19:00Z,0000388,01000608,0000.02,0000.45,-000.13,-000.12,-000.34,-000.45,-000.06,-000.03,-000.13,27.3,00.0,0641.0,34.6
2016-11-20T00:20:00Z,0000388,01000608,0000.43,0000.46,0000.34,-000.16,-000.23,0000.38,0000.04,0000.13,0000.19,27.3,00.0,0641.0,34.6
2016-11-20T00:21:00Z,0000388,01000608,0000.39,0000.60,0000.10,-000.27,-000.15,-000.16,-000.02,-000.15,-000.16,27.3,00.0,0641.0,34.6
2016-11-20T00:22:00Z,0000388,01000608,-000.69,0000.16,-000.11,0000.11,-000.42,-000.52,0000.32,0000.16,-000.08,27.3,00.0,0641.0,34.6
2016-11-20T00:23:00Z,0000388,01000608,0001.04,-000.11,-000.25,-000.33,0000.23,-000.56,-000.07,0000.09,0000.29,27.3,00.0,0641.0,34.6
2016-11-20T00:24:00Z,0000388,01000608,0001.16,0000.17,0000.17,0000.28,-000.21,0000.15,-000.02,-000.09,0000.05,27.3,00.0,0641.0,34.6
2016-11-20T00:25:00Z,0000388,01000608,0000.32,-000.19,-000.28,0000.18,-000.15,-000.56,-000.15,0000.09,-000.12,27.3,00.0,0641.0,34.6
2016-11-20T00:26:00Z,0000388,01000608,0001.07,-000.50,-000.07,0000.72,0000.21,-000.05,0000.13,-000.13,0000.10,27.3,00.0,0641.0,34.6
2016-11-20T00:27:00Z,0000388,01000608,0000.46,-000.07,-000.06,0000.03,0000.50,-000.12,0000.02,0000.14,-000.10,27.2,00.0,0641.0,34.6
2016-11-20T00:28:00Z,0000388,01000608,-000.19,0000.20,-000.27,-000.23,-000.04,-000.41,-000.04,0000.07,-000.06,27.3,00.0,0641.0,34.6
2016-11-20T00:29:00Z,0000388,01000608,-000.36,-000.31,-000.00,0000.81,-000.04,-000.10,0000.05,-000.04,0000.03,27.2,00.0,0641.1,34.6
2016-11-20T00:30:00Z,0000388,01000608,0000.94,0000.11,-000.11,0000.11,0000.24,-000.50,0000.01,0000.04,0000.23,27.2,00.0,0641.1,34.6
2016-11-20T00:31:00Z,0000388,01000608,-000.03,-000.04,-000.01,0000.23,0000.11,-000.01,-000.05,-000.01,-000.08,27.3,00.0,0641.1,34.6
2016-11-20T00:32:00Z,0000388,01000608,0000.01,0000.27,0000.13,-000.16,0000.27,-000.41,0000.06,0000.07,-000.21,27.3,00.0,0641.1,34.6
2016-11-20T00:33:00Z,0000388,01000608,0000.54,0000.18,-000.00,0000.08,0000.55,-000.33,0000.18,0000.09,0000.34,27.2,00.0,0641.1,34.6
2016-11-20T00:34:00Z,0000388,01000608,0000.55,0000.65,-000.42,-000.35,-000.17,-000.01,-000.18,-000.09,0000.06,27.2,00.0,0641.1,34.6
2016-11-20T00:35:00Z,0000388,01000608,0000.64,0000.78,-000.21,0000.26,0000.11,-000.21,-000.14,0000.01,-000.02,27.3,00.0,0641.2,34.6
2016-11-20T00:36:00Z,0000388,01000608,0000.50,0000.61,0000.26,0000.08,-000.10,-000.05,0000.19,0000.06,0000.09,27.2,00.0,0641.2,34.6
2016-11-20T00:37:00Z,0000388,01000608,-000.37,0000.45,0000.11,-000.16,0000.15,-000.18,0000.06,-000.03,-000.32,27.2,00.0,0641.2,34.6
2016-11-20T00:38:00Z,0000388,01000608,0000.94,0000.37,-000.70,0000.24,0000.07,-000.34,-000.02,-000.01,0000.28,27.2,00.0,0641.2,34.6
2016-11-20T00:39:00Z,0000388,01000608,0001.42,0000.40,0000.17,0000.40,0000.05,-000.13,0000.00,0000.15,0000.08,27.2,00.0,0641.2,34.6
2016-11-20T00:40:00Z,0000388,01000608,0001.14,0000.31,0000.11,-000.23,0000.04,-000.44,0000.09,-000.06,-000.36,27.2,00.0,0641.2,34.6
2016-11-20T00:41:00Z,0000388,01000608,0000.49,0000.38,-000.46,0000.10,0000.41,-000.41,-000.06,0000.07,0000.29,27.2,00.0,0641.2,34.6
2016-11-20T00:42:00Z,0000388,01000608,0000.32,-000.28,0000.37,0000.33,0000.05,0000.12,0000.06,-000.05,0000.09,27.2,00.0,0641.2,34.6
2016-11-20T00:43:00Z,0000388,01000608,0000.60,0000.44,-000.19,0000.08,0000.02,-000.29,-000.13,0000.05,-000.25,27.2,00.0,0641.2,34.6
2016-11-20T00:44:00Z,0000388,01000608,0000.01,0000.52,0000.07,-000.94,0000.23,0000.45,0000.08,0000.01,0000.23,27.2,00.0,0641.2,34.6
2016-11-20T00:45:00Z,0000388,01000608,0000.35,0000.10,0000.06,0000.05,0000.14,-000.11,0000.12,0000.04,-000.31,27.2,00.0,0641.2,34.6
2016-11-20T00:46:00Z,0000388,01000608,0000.73,-000.01,-000.41,-000.41,-000.13,-000.07,0000.03,-000.05,0000.39,27.2,00.0,0641.2,34.6
2016-11-20T00:47:00Z,0000388,01000608,0000.70,0000.90,0000.11,-000.00,0000.06,-000.31,-000.12,-000.05,-000.22,27.2,00.0,0641.2,34.6
2016-11-20T00:48:00Z,0000388,01000608,0000.28,0000.01,-000.56,0000.12,-000.35,-000.22,0000.26,0000.14,0000.20,27.2,00.0,0641.2,34.6
2016-11-20T00:49:00Z,0000388,01000608,0000.24,-000.22,0000.05,0000.03,0000.02,0000.01,-000.03,-000.14,0000.22,27.2,00.0,0641.2,34.6
2016-11-20T00:50:00Z,0000388,01000608,0000.41,-000.48,0000.10,-000.14,-000.12,-000.14,-000.04,0000.16,-000.13,27.2,00.0,0641.2,34.6
2016-11-20T00:51:00Z,0000388,01000608,0000.06,0000.02,-000.06,-000.46,0000.01,0000.06,0000.02,-000.08,-000.26,27.2,00.0,0641.2,34.6
2016-11-20T00:52:00Z,0000388,01000608,0000.02,0000.03,-000.30,-000.57,0000.14,-000.33,0000.04,0000.22,0000.11,27.2,00.0,0641.2,34.6
2016-11-20T00:53:00Z,0000388,01000608,-000.10,0000.08,-000.03,-000.39,0000.21,-000.27,0000.05,-000.05,0000.12,27.2,00.0,0641.2,34.6
2016-11-20T00:54:00Z,0000388,01000608,0000.74,0000.20,0000.07,0000.18,-000.01,0000.03,-000.01,0000.05,-000.17,27.2,00.0,0641.2,34.6
2016-11-20T00:55:00Z,0000388,01000608,0000.25,0000.19,0000.32,0000.02,0000.27,-000.42,-000.03,-000.09,0000.00,27.2,00.0,0641.2,34.6
2016-11-20T00:56:00Z,0000388,01000608,-000.26,-000.04,-000.04,0000.50,-000.09,-000.01,-000.07,0000.11,0000.05,27.2,00.0,0641.2,34.6
2016-11-20T00:57:00Z,0000388,41000608,,,,,,,,,,27.2,00.0,0641.3,34.6
2016-11-20T00:58:00Z,0000388,61000608,,,,,,,,,,27.1,00.0,0640.3,34.6
2016-11-20T00:59:00Z,0000388,21000608,,,,,,,,,,27.1,00.0,0640.2,34.6
2016-11-20T01:00:00Z,0000388,21000608,,,,,,,,,,27.1,00.0,0640.2,34.6
2016-11-20T01:01:00Z,0000388,21000608,,,,,,,,,,27.1,00.0,0640.2,34.6
2016-11-20T01:02:00Z,0000388,21000608,,,,,,,,,,27.1,00.0,0640.2,34.6
2016-11-20T01:03:00Z,0000388,61000608,,,,,,,,,,27.1,00.0,0640.2,34.6
2016-11-20T01:04:00Z,0000388,41000608,0000.21,0000.13,-000.14,-000.00,-000.14,-000.34,-000.11,0000.02,0000.30,27.1,00.0,0641.1,34.6
2016-11-20T01:05:00Z,0000388,01000608,0000.23,-000.04,-000.05,0000.38,0000.14,0000.13,0000.10,-000.02,-000.32,27.1,00.0,0641.2,34.6
2016-11-20T01:06:00Z,0000388,01000608,-000.33,0000.50,-000.10,0000.12,0000.16,-000.54,0000.05,0000.12,0000.18,27.1,00.0,0641.2,34.6
2016-11-20T01:07:00Z,0000388,01000608,-000.24,-000.06,-000.32,0000.09,-000.19,-000.73,0000.05,-000.11,-000.15,27.1,00.0,0641.2,34.6
2016-11-20T01:08:00Z,0000388,01000608,-001.14,0000.20,0000.18,0000.84,-000.31,-000.27,0000.12,0000.08,0000.44,27.1,00.0,0641.2,34.6
2016-11-20T01:09:00Z,0000388,01000608,-000.86,0000.43,0000.55,-000.04,0000.16,0000.31,-000.07,0000.02,-000.04,27.1,00.0,0641.3,34.6
2016-11-20T01:10:00Z,0000388,01000608,0000.07,0000.02,-000.56,0000.04,-000.26,-000.28,0000.03,-000.07,0000.00,27.1,00.0,0641.3,34.6
2016-11-20T01:11:00Z,0000388,01000608,-000.54,-000.64,-000.09,0000.28,-000.09,0000.20,-000.09,0000.04,-000.43,27.1,00.0,0641.3,34.6
2016-11-20T01:12:00Z,0000388,01000608,0000.44,-000.38,-000.09,0000.27,-000.28,-000.00,0000.02,0000.10,0000.11,27.1,00.0,0641.3,34.6
2016-11-20T01:13:00Z,0000388,01000608,0000.03,-000.33,-000.23,0000.22,-000.42,-000.19,0000.14,0000.00,0000.14,27.0,00.0,0641.3,34.6
2016-11-20T01:14:00Z,0000388,01000608,0000.44,-000.06,0000.27,0000.33,-000.19,-000.11,-000.05,-000.04,0000.01,27.0,00.0,0641.4,34.6
2016-11-20T01:15:00Z,0000388,01000608,-000.87,0000.38,0000.44,0000.60,-000.18,0000.34,-000.06,0000.06,0000.33,27.0,00.0,0641.4,34.6
2016-11-20T01:16:00Z,0000388,01000608,0000.24,0000.57,-000.11,-000.04,-000.11,0000.03,0000.13,-000.01,-000.36,27.0,00.0,0641.4,34.6
2016-11-20T01:17:00Z,0000388,01000608,0000.36,0000.37,-000.32,0000.16,-000.09,-000.26,0000.03,0000.05,0000.09,27.0,00.0,0641.4,34.6
2016-11-20T01:18:00Z,0000388,01000608,-000.08,0000.29,0000.10,0000.48,-000.14,0000.04,-000.01,0000.07,0000.03,27.0,00.0,0641.4,34.6
2016-11-20T01:19:00Z,0000388,01000608,-000.26,-000.14,0000.30,0000.24,-000.18,0000.17,0000.11,-000.00,0000.05,27.0,00.0,0641.4,34.6
2016-11-20T01:20:00Z,0000388,01000608,0000.02,-000.11,-000.10,0000.54,-000.09,0000.08,0000.04,-000.10,0000.01,27.0,00.0,0641.4,34.6
2016-11-20T01:21:00Z,0000388,01000608,0000.08,-000.78,-000.23,0000.16,-000.15,-000.17,-000.04,0000.08,-000.05,27.0,00.0,0641.4,34.6
2016-11-20T01:22:00Z,0000388,01000608,0000.55,0000.22,0000.79,0000.31,-000.00,0000.30,-000.14,-000.04,-000.11,27.0,00.0,0641.4,34.6
2016-11-20T01:23:00Z,0000388,01000608,-000.71,0000.36,0001.14,0000.31,-000.14,0000.20,-000.03,0000.16,0000.36,27.0,00.0,0641.4,34.6
2016-11-20T01:24:00Z,0000388,01000608,-000.42,-000.12,0000.39,-000.10,0000.32,0000.08,0000.05,-000.10,-000.38,27.0,00.0,0641.4,34.6
2016-11-20T01:25:00Z,0000388,01000608,0001.10,-000.03,0000.61,0000.67,-000.09,-000.02,0000.21,0000.18,0000.09,27.0,00.0,0641.4,34.6
2016-11-20T01:26:00Z,0000388,01000608,0000.45,-000.67,-000.16,0000.24,-000.26,0000.10,-000.27,-000.06,0000.09,27.0,00.0,0641.4,34.6
2016-11-20T01:27:00Z,0000388,01000608,-000.18,0000.25,0000.33,0000.20,-000.41,-000.09,0000.20,-000.09,0000.17,27.0,00.0,0641.4,34.6
2016-11-20T01:28:00Z,0000388,01000608,0000.04,0000.22,0000.68,0000.40,0000.21,-000.07,-000.02,0000.15,-000.11,27.0,00.0,0641.4,34.6
2016-11-20T01:29:00Z,0000388,01000608,0000.70,-000.62,0000.07,0000.10,-000.22,0000.19,0000.30,-000.07,0000.31,27.0,00.0,0641.4,34.6
2016-11-20T01:30:00Z,0000388,01000608,0000.30,-000.18,0000.31,0000.89,0000.01,0000.12,-000.05,-000.02,-000.45,27.0,00.0,0641.5,34.6
2016-11-20T01:31:00Z,0000388,01000608,-000.00,0000.54,0000.63,0000.34,0000.12,-000.11,-000.21,0000.09,0000.25,26.9,00.0,0641.5,34.6
2016-11-20T01:32:00Z,0000388,01000608,-000.74,0000.65,0000.78,0000.17,-000.13,0000.40,0000.09,0000.02,-000.07,26.9,00.0,0641.5,34.6
2016-11-20T01:33:00Z,0000388,01000608,0000.60,0000.23,0000.01,0000.12,0000.17,0000.08,-000.05,0000.01,0000.09,26.9,00.0,0641.5,34.6
2016-11-20T01:34:00Z,0000388,01000608,-000.71,-000.17,0000.16,0000.64,0000.49,0000.34,0000.23,-000.09,-000.20,26.9,00.0,0641.5,34.6
2016-11-20T01:35:00Z,0000388,01000608,-000.27,-000.23,0000.30,-000.08,-000.38,-000.29,-000.12,0000.10,0000.15,26.9,00.0,0641.5,34.6
2016-11-20T01:36:00Z,0000388,01000608,0000.58,-000.05,0000.46,0000.09,-000.08,-000.25,-000.07,-000.10,-000.01,26.9,00.0,0641.5,34.6
2016-11-20T01:37:00Z,0000388,01000608,0000.98,0000.34,-000.29,0000.17,-000.19,-000.12,0000.05,0000.07,0000.17,26.9,00.0,0641.5,34.6
2016-11-20T01:38:00Z,0000388,01000608,0000.22,-000.07,0000.20,0000.30,0000.06,-000.36,0000.18,0000.10,-000.26,26.9,00.0,0641.5,34.6
2016-11-20T01:39:00Z,0000388,01000608,0000.20,0000.26,0000.35,0000.67,0000.43,-000.18,-000.24,0000.03,0000.17,26.9,00.0,0641.5,34.6
2016-11-20T01:40:00Z,0000388,01000608,0000.32,0000.38,0000.61,0000.32,0000.01,-000.02,0000.03,-000.12,-000.14,26.9,00.0,0641.6,34.6
2016-11-20T01:41:00Z,0000388,01000608,0000.04,0000.37,-000.23,0000.32,-000.10,-000.01,0000.10,0000.06,0000.29,26.9,00.0,0641.5,34.6
2016-11-20T01:42:00Z,0000388,01000608,0000.14,-000.47,-000.12,0000.45,0000.23,-000.22,-000.07,-000.01,-000.17,26.9,00.0,0641.5,34.6
2016-11-20T01:43:00Z,0000388,01000608,-000.45,0000.11,-000.02,0000.26,-000.35,-000.11,-000.00,0000.17,0000.11,26.9,00.0,0641.5,34.6
2016-11-20T01:44:00Z,0000388,01000608,0000.27,0000.25,0000.03,0000.13,0000.01,0000.29,0000.01,0000.03,-000.00,26.9,00.0,0641.5,34.6
2016-11-20T01:45:00Z,0000388,01000608,0000.26,0000.03,-000.13,0000.32,0000.05,0000.07,0000.03,0000.02,-000.24,26.9,00.0,0641.5,34.6
2016-11-20T01:46:00Z,0000388,01000608,-000.24,0000.28,-000.31,0000.11,-000.20,-000.26,-000.08,-000.10,0000.16,26.9,00.0,0641.5,34.6
2016-11-20T01:47:00Z,0000388,01000608,0000.23,-000.06,0000.31,0000.63,-000.18,0000.08,0000.10,0000.03,0000.02,26.9,00.0,0641.5,34.6
2016-11-20T01:48:00Z,0000388,01000608,-000.97,0000.04,-000.04,0000.23,0000.49,-000.57,0000.07,-000.01,0000.07,26.9,00.0,0641.5,34.6
2016-11-20T01:49:00Z,0000388,01000608,0000.11,0000.75,-000.03,0000.56,0000.06,0000.21,0000.00,0000.07,0000.00,26.9,00.0,0641.5,34.6
2016-11-20T01:50:00Z,0000388,01000608,0000.08,-000.35,-000.02,0000.24,0000.07,-000.16,0000.08,0000.01,0000.19,26.9,00.0,0641.5,34.6
2016-11-20T01:51:00Z,0000388,01000608,-000.24,0000.15,-000.13,-000.21,0000.29,-000.14,0000.19,0000.00,-000.13,26.9,00.0,0641.5,34.6
2016-11-20T01:52:00Z,0000388,01000608,-000.25,-000.38,-000.03,0000.57,0000.10,-000.10,-000.14,0000.03,0000.37,26.9,00.0,0641.5,34.6
2016-11-20T01:53:00Z,0000388,01000608,-000.45,0000.64,0000.37,0000.59,-000.02,0000.18,0000.07,0000.02,-000.26,26.9,00.0,0641.5,34.6
2016-11-20T01:54:00Z,0000388,01000608,-000.33,0000.02,-000.10,0000.17,-000.22,-000.41,0000.08,0000.05,0000.10,26.9,00.0,0641.6,34.6
2016-11-20T01:55:00Z,0000388,01000608,0000.60,0000.64,0000.52,-000.01,-000.06,-000.27,-000.02,-000.02,-000.18,26.9,00.0,0641.6,34.6
2016-11-20T01:56:00Z,0000388,01000608,-000.17,0000.37,-000.20,0000.47,-000.33,-000.19,0000.09,-000.01,0000.14,26.9,00.0,0641.6,34.6
2016-11-20T01:57:00Z,0000388,41000608,,,,,,,,,,26.9,00.0,0641.7,34.6
2016-11-20T01:58:00Z,0000388,61000608,,,,,,,,,,26.8,00.0,0640.7,34.6
2016-11-20T01:59:00Z,0000388,21000608,,,,,,,,,,26.8,00.0,0640.6,34.6
2016-11-20T02:00:00Z,0000388,21000608,,,,,,,,,,26.8,00.0,0640.6,34.6
2016-11-20T02:01:00Z,0000388,21000608,,,,,,,,,,26.8,00.0,0640.6,34.6
2016-11-20T02:02:00Z,0000388,21000608,,,,,,,,,,26.8,00.0,0640.6,34.6
2016-11-20T02:03:00Z,0000388,61000608,,,,,,,,,,26.8,00.0,0640.6,34.6
2016-11-20T02:04:00Z,0000388,41000608,-000.09,-000.39,0000.35,0000.35,0000.22,-000.11,-000.05,0000.04,-000.17,26.8,00.0,0641.4,34.6
2016-11-20T02:05:00Z,0000388,01000608,0000.14,0000.14,-000.14,0000.17,0000.06,0000.37,-000.07,0000.13,0000.23,26.8,00.0,0641.5,34.6
2016-11-20T02:06:00Z,0000388,01000608,-000.35,0000.42,-000.26,0000.03,0000.40,0000.25,0000.29,-000.01,-000.20,26.8,00.0,0641.5,34.6
2016-11-20T02:07:00Z,0000388,01000608,-000.15,0000.72,-000.05,-000.10,0000.11,0000.29,-000.21,-000.04,0000.00,26.8,00.0,0641.5,34.6
2016-11-20T02:08:00Z,0000388,01000608,0000.36,0000.04,-000.38,0000.20,-000.12,0000.23,-000.16,-000.00,-000.11,26.8,00.0,0641.5,34.6
2016-11-20T02:09:00Z,0000388,01000608,-000.39,-000.70,-000.12,-000.11,0000.16,-000.11,0000.08,-000.00,0000.25,26.8,00.0,0641.4,34.6
2016-11-20T02:10:00Z,0000388,01000608,0000.50,-000.00,0000.20,0000.13,-000.08,0000.19,0000.03,-000.03,-000.12,26.8,00.0,0641.4,34.6
2016-11-20T02:11:00Z,0000388,01000608,-000.24,0000.03,-000.38,0000.21,-000.13,0000.15,0000.15,0000.09,0000.19,26.8,00.0,0641.4,34.6
2016-11-20T02:12:00Z,0000388,01000608,0000.74,-000.02,0000.34,0000.39,0000.07,0000.43,-000.03,-000.21,0000.06,26.8,00.0,0641.4,34.6
2016-11-20T02:13:00Z,0000388,01000608,0000.57,-000.05,-000.15,-000.18,-000.13,0000.19,0000.00,0000.03,-000.33,26.8,00.0,0641.4,34.6
2016-11-20T02:14:00Z,0000388,01000608,0000.64,0000.23,-000.32,0000.03,0000.16,0000.14,-000.00,0000.11,0000.24,26.8,00.0,0641.5,34.6
2016-11-20T02:15:00Z,0000388,01000608,0000.12,0000.40,-000.13,-000.24,-000.27,-000.01,0000.00,0000.11,0000.06,26.8,00.0,0641.4,34.6
2016-11-20T02:16:00Z,0000388,01000608,0000.76,-000.15,0000.54,0000.50,0000.12,0000.17,0000.06,-000.02,-000.10,26.8,00.0,0641.4,34.6
2016-11-20T02:17:00Z,0000388,01000608,-000.36,0000.09,-000.01,-000.44,-000.21,0000.08,0000.08,0000.00,0000.04,26.7,00.0,0641.4,34.6
2016-11-20T02:18:00Z,0000388,01000608,0001.01,0000.33,-000.04,0000.32,0000.34,-000.18,-000.17,-000.00,-000.03,26.8,00.0,0641.4,34.6
2016-11-20T02:19:00Z,0000388,01000608,-000.26,0000.87,0000.11,0000.00,-000.15,0000.28,0000.18,-000.25,-000.06,26.8,00.0,0641.4,34.6
2016-11-20T02:20:00Z,0000388,01000608,-000.46,0000.65,0000.33,-000.16,0000.04,0000.11,-000.20,0000.17,0000.03,26.8,00.0,0641.4,34.6
2016-11-20T02:21:00Z,0000388,01000608,0001.04,0000.37,0000.17,0000.44,0000.15,-000.07,0000.09,0000.01,-000.06,26.7,00.0,0641.4,34.6
2016-11-20T02:22:00Z,0000388,01000608,0000.32,-000.37,0000.14,-000.63,-000.21,-000.16,-000.08,0000.00,0000.11,26.7,00.0,0641.4,34.6
2016-11-20T02:23:00Z,0000388,01000608,-000.96,0000.29,-000.09,0000.22,0000.02,-000.24,0000.06,0000.05,-000.06,26.7,00.0,0641.4,34.6
2016-11-20T02:24:00Z,0000388,01000608,-000.35,0000.17,-000.51,-000.06,-000.31,0000.14,0000.07,-000.14,0000.04,26.7,00.0,0641.4,34.6
2016-11-20T02:25:00Z,0000388,01000608,0000.87,-000.22,0000.42,0000.10,0000.23,0000.37,0000.03,0000.14,0000.20,26.7,00.0,0641.4,34.6
2016-11-20T02:26:00Z,0000388,01000608,0000.26,0000.03,-000.38,-000.47,-000.05,-000.50,0000.03,0000.05,-000.10,26.7,00.0,0641.4,34.6
2016-11-20T02:27:00Z,0000388,01000608,-000.52,0000.16,-000.41,-000.33,-000.08,-000.02,0000.03,-000.04,-000.01,26.7,00.0,0641.4,34.6
2016-11-20T02:28:00Z,0000388,01000608,-000.03,-000.42,0000.33,-000.28,-000.08,0000.25,-000.05,0000.05,-000.10,26.8,00.0,0641.4,34.6
2016-11-20T02:29:00Z,0000388,01000608,0000.80,0000.33,0000.01,0000.35,0000.56,0000.32,-000.03,0000.04,0000.35,26.7,00.0,0641.4,34.6
2016-11-20T02:30:00Z,0000388,01000608,-000.41,0000.42,0000.01,0000.00,0000.09,0000.25,-000.01,0000.02,-000.18,26.7,00.0,0641.4,34.6
2016-11-20T02:31:00Z,0000388,01000608,0000.14,-000.08,-000.15,-000.08,0000.07,0000.20,0000.07,-000.06,0000.08,26.7,00.0,0641.4,34.6
2016-11-20T02:32:00Z,0000388,01000608,0000.29,-000.16,-000.32,-000.39,-000.07,0000.05,-000.01,0000.03,0000.03,26.7,00.0,0641.4,34.6
2016-11-20T02:33:00Z,0000388,01000608,-000.93,0000.22,0000.29,-000.10,0000.25,-000.17,-000.06,0000.03,-000.12,26.7,00.0,0641.4,34.6
2016-11-20T02:34:00Z,0000388,01000608,0000.46,0000.04,-000.10,-000.25,0000.04,0000.09,0000.11,-000.02,0000.06,26.8,00.0,0641.4,34.6
2016-11-20T02:35:00Z,0000388,01000608,-001.42,0000.14,0000.05,0000.24,0000.25,0000.03,0000.06,-000.04,-000.12,26.8,00.0,0641.4,34.6
2016-11-20T02:36:00Z,0000388,01000608,-000.34,-000.51,0000.03,-000.70,-000.28,-000.02,0000.07,-000.02,-000.06,26.7,00.0,0641.4,34.6
2016-11-20T02:37:00Z,0000388,01000608,0000.57,-000.17,0000.04,-000.42,0000.31,-000.34,0000.00,0000.05,0000.15,26.7,00.0,0641.4,34.6
2016-11-20T02:38:00Z,0000388,01000608,0001.01,0000.20,0000.07,-000.24,0000.09,-000.06,-000.03,0000.04,-000.11,26.7,00.0,0641.4,34.6
2016-11-20T02:39:00Z,0000388,01000608,-000.52,-000.07,-000.07,0000.05,0000.08,0000.06,-000.04,0000.06,0000.06,26.8,00.0,0641.4,34.6
2016-11-20T02:40:00Z,0000388,01000608,-000.48,0000.14,0000.45,-000.24,0000.10,0000.28,0000.11,-000.07,0000.02,26.7,00.0,0641.4,34.6
2016-11-20T02:41:00Z,0000388,01000608,-000.39,0000.49,0000.33,0000.44,-000.28,-000.02,-000.01,0000.05,-000.15,26.7,00.0,0641.4,34.6
2016-11-20T02:42:00Z,0000388,01000608,0000.09,0000.38,-000.00,0000.17,0000.26,0000.22,-000.02,0000.06,-000.06,26.7,00.0,0641.4,34.5
2016-11-20T02:43:00Z,0000388,01000608,0000.31,-000.47,-000.03,0000.44,0000.20,0000.28,0000.10,-000.07,-000.01,26.7,00.0,0641.4,34.6
2016-11-20T02:44:00Z,0000388,01000608,0000.32,0000.18,-000.21,-000.69,-000.32,-000.10,0000.01,0000.01,0000.04,26.7,00.0,0641.4,34.6
2016-11-20T02:45:00Z,0000388,01000608,-000.46,0000.63,0000.26,0000.06,-000.24,0000.24,-000.04,0000.08,-000.00,26.7,00.0,0641.4,34.6
2016-11-20T02:46:00Z,0000388,01000608,0001.37,0000.38,0000.11,-000.32,0000.26,0000.08,-000.18,-000.13,0000.07,26.7,00.0,0641.4,34.6
2016-11-20T02:47:00Z,0000388,01000608,-000.01,-000.28,-000.01,-000.34,0000.27,-000.09,0000.01,0000.10,-000.12,26.7,00.0,0641.4,34.6
2016-11-20T02:48:00Z,0000388,01000608,0000.14,0000.57,0000.17,-000.44,0000.13,-000.03,-000.12,-000.02,0000.03,26.7,00.0,0641.4,34.6
2016-11-20T02:49:00Z,0000388,01000608,-000.27,0000.42,-000.07,0000.45,-000.19,0000.05,0000.12,0000.06,0000.14,26.7,00.0,0641.4,34.6
2016-11-20T02:50:00Z,0000388,01000608,0000.12,-000.08,-000.05,-000.47,0000.32,-000.04,0000.10,-000.06,0000.30,26.7,00.0,0641.4,34.6
2016-11-20T02:51:00Z,0000388,01000608,0000.04,0000.45,0000.21,0000.07,-000.02,0000.05,0000.01,0000.01,-000.21,26.7,00.0,0641.4,34.6
2016-11-20T02:52:00Z,0000388,01000608,0000.55,-000.08,0000.26,0000.10,-000.05,-000.10,-000.17,-000.10,-000.15,26.7,00.0,0641.4,34.6
2016-11-20T02:53:00Z,0000388,01000608,0000.18,0000.25,-000.09,0000.47,-000.06,-000.10,0000.10,0000.11,0000.23,26.7,00.0,0641.4,34.6
2016-11-20T02:54:00Z,0000388,01000608,0000.54,-000.03,0000.12,-000.01,0000.16,0000.06,0000.04,-000.01,-000.24,26.7,00.0,0641.4,34.6
2016-11-20T02:55:00Z,0000388,01000608,-000.86,0000.45,-000.33,-000.03,-000.05,-000.23,0000.15,-000.08,0000.20,26.7,00.0,0641.4,34.6
2016-11-20T02:56:00Z,0000388,01000608,0000.42,-000.04,0000.14,-000.08,0000.37,0000.15,0000.00,0000.21,-000.01,26.7,00.0,0641.4,34.6
2016-11-20T02:57:00Z,0000388,41000608,,,,,,,,,,26.8,00.0,0641.4,34.6
2016-11-20T02:58:00Z,0000388,61000608,,,,,,,,,,26.6,00.0,0640.4,34.6
2016-11-20T02:59:00Z,0000388,21000608,,,,,,,,,,26.6,00.0,0640.4,34.6
2016-11-20T03:00:00Z,0000388,21000608,,,,,,,,,,26.6,00.0,0640.4,34.6
2016-11-20T03:01:00Z,0000388,21000608,,,,,,,,,,26.7,00.0,0640.4,34.6
2016-11-20T03:02:00Z,0000388,21000608,,,,,,,,,,26.7,00.0,0640.4,34.6
2016-11-20T03:03:00Z,0000388,61000608,,,,,,,,,,26.7,00.0,0640.4,34.6
2016-11-20T03:04:00Z,0000388,41000608,-000.80,0000.21,0000.31,0000.82,-000.40,0000.33,0000.15,0000.01,0000.22,26.7,00.0,0641.3,34.6
2016-11-20T03:05:00Z,0000388,01000608,0000.57,-000.02,-000.46,-000.62,0000.25,0000.08,-000.03,0000.19,-000.08,26.7,00.0,0641.4,34.5
2016-11-20T03:06:00Z,0000388,01000608,0000.12,0000.04,0000.22,0000.62,-000.00,0000.22,0000.16,-000.12,0000.05,26.7,00.0,0641.4,34.6
2016-11-20T03:07:00Z,0000388,01000608,0000.39,-000.01,-000.02,0000.40,-000.51,0000.31,-000.08,0000.08,-000.03,26.7,00.0,0641.3,34.6
2016-11-20T03:08:00Z,0000388,01000608,-000.12,-000.40,-000.08,0000.47,-000.16,0000.19,-000.26,-000.26,-000.15,26.7,00.0,0641.3,34.6
2016-11-20T03:09:00Z,0000388,01000608,0000.21,-000.55,-000.06,-000.02,-000.35,-000.14,0000.31,0000.14,0000.11,26.7,00.0,0641.3,34.6
2016-11-20T03:10:00Z,0000388,01000608,0000.28,0000.23,-000.22,0000.22,-000.15,0000.08,0000.06,0000.05,0000.09,26.7,00.0,0641.3,34.6
2016-11-20T03:11:00Z,0000388,01000608,-000.08,0000.15,0000.08,-000.13,-000.11,0000.02,-000.17,0000.04,-000.14,26.7,00.0,0641.3,34.6